Regional Weather Roundup
Issued by NWS State College, PA

Current Version | Previous Version | Text Only | Print | Product List | Glossary On
Versions: 1 2 3 4 5 6 7 8 9 10 11 12 13 14 15 16 17 18 19 20 21 22 23 24 25 26 27 28 29 30 31 32 33 34 35 36 37 38 39 40 41 42 43 44 45 46 47 48 49 50
000
ASUS41 KCTP 140110
RWRCTP

REGIONAL WEATHER ROUNDUP
NATIONAL WEATHER SERVICE STATE COLLEGE PA
800 PM EST WED DEC 13 2017

Note: "fair" indicates few or no clouds below 12,000 feet with no
significant weather and/or obstructions to visibility.

* = STATION THAT DOES NOT REPORT PRECIPITATION /E.G. RAIN...SNOW...ETC/
    THUNDER OR FOG.

PAZ002>004-007>009-013>016-020>023-029>032-140200-
WESTERN PENNSYLVANIA

CITY           SKY/WX    TMP DP  RH WIND       PRES   REMARKS
ERIE           LGT SNOW  20  16  84 SE8       29.54F VSB 1   WCI  10
MEADVILLE      LGT SNOW  18  16  92 CALM      29.50F VSB 3/4
FRANKLIN*      LGT SNOW  18  16  93 S6        29.50S FOG     WCI   9
NEW CASTLE     LGT SNOW  21  19  93 VRB6      29.52F VSB 1   WCI  14
BEAVER COUNTY  NOT AVBL
BUTLER*        LGT SNOW  21  18  86 S3        29.53F FOG
PITTSBURGH INT LGT SNOW  23  19  85 SE5       29.52S VSB 1
PITTSBURGH     CLOUDY    21  15  78 VRB3      29.52S
INDIANA*       CLOUDY    23  18  80 CALM      29.58R
LATROBE        LGT SNOW  23  18  80 CALM      29.54F
WASHINGTON CO* LGT SNOW  21  18  86 S3        29.56R
$$

PAZ004>006-010>012-017>019-024>028-033>037-041-042-045-046-049>053-140200-
CENTRAL PENNSYLVANIA

CITY           SKY/WX    TMP DP  RH WIND       PRES   REMARKS
BRADFORD       LGT SNOW  14  11  87 SE7       29.46F VSB 1   WCI   4
DUBOIS         CLOUDY    17  12  80 SE8       29.48F WCI   7
CLEARFIELD     CLOUDY    18  15  88 E5        29.53F WCI  11
JOHNSTOWN      CLOUDY    20  14  77 S9        29.47F WCI   9
ALTOONA        CLOUDY    25  15  66 S9        29.55F
STATE COLLEGE  CLOUDY    19  10  68 NE6       29.57F WCI  11
WILLIAMSPORT   CLOUDY    24   8  50 SW5       29.64F
SELINSGROVE    CLOUDY    23  12  62 CALM      29.66F
FT INDIANTOWN  CLOUDY    24   7  48 E3        29.65F
CAPITAL CITY   CLOUDY    28   7  41 SE5       29.67F
HARRISBURG     CLOUDY    28   9  44 S3        29.66F
YORK           CLOUDY    26  11  52 SE3       29.65F
$$

PAZ038>040-043-044-047-048-054-055-060>062-067>071-140200-
EASTERN PENNSYLVANIA

CITY           SKY/WX    TMP DP  RH WIND       PRES   REMARKS
SCRANTON       CLOUDY    22   7  52 SW8       29.61F WCI  12
MOUNT POCONO   CLOUDY    15   5  64 SW9       29.54F WCI   3
ALLENTOWN      CLOUDY    25   6  44 SW6       29.67F
QUAKERTOWN*    CLOUDY    25   7  46 W3        29.68F
READING        CLOUDY    25  10  53 CALM      29.68F
LANCASTER      CLOUDY    25  14  63 CALM      29.67F
COATESVILLE    PTCLDY    25   7  46 CALM      29.68F
POTTSTOWN      MOCLDY    24   6  46 SW5       29.71F
BLUE BELL      CLOUDY    27   9  46 CALM      29.71F
DOYLESTOWN     CLOUDY    24   5  44 SW3       29.68F
WILLOW GROVE   NOT AVBL
NORTH PHILA    CLOUDY    29   6  38 W9        29.73F
PHILADELPHIA   CLOUDY    29   5  36 W12       29.72F
$$




USA.gov is the U.S. government's official web portal to all federal, state and local government web resources and services.